Location: Bussy-Saint-Georges
(48.8410°N, 2.7017°E)
Time: 22:45:58
(UTC+00:00)

SKYMED 2 - Pass Details

Date: 18 October 2021
Orbit: 621 x 623 km, 97.9° (Epoch: 07 December)

Event Time Altitude Azimuth Distance (km) Brightness Sun altitude
Rises 18:25:25 0° 10° (N) 2,919 7.0 -15.8°
Reaches altitude 10° 18:27:39 10° 6° (N) 2,007 6.1 -16.2°
Maximum altitude 18:31:56 57° 289° (WNW) 737 4.2 -16.9°
Drops below altitude 10° 18:36:10 10° 210° (SSW) 1,990 6.5 -17.6°
Sets 18:38:23 0° 207° (SSW) 2,892 7.3 -18.0°
